RH
20 19 16 14 10 9 11 18 27 7 7 8 8 8 8 8 8 9 10 10 9 8 7 6 6 5 5 4 4 3 3 3 3 2 2 2 3 3 4 6 7 6 5
23 21 17 14 12 10 9 32 36 9 8 8 8 8 8 9 10 12 12 11 10 8 8 7 6 5 5 4 3 3 5 7 8 7 8 9 9 11 6 5 12 12 8
26 21 18 16 15 12 13 42 30 10 10 9 9 9 11 12 13 14 13 11 10 9 8 7 6 5 4 3 4 5 5 6 7 7 6 9 14 19 21 10 6 18 21
26 22 20 19 15 12 36 40 18 12 12 12 11 12 14 15 16 15 14 12 11 10 8 7 6 4 4 4 5 6 6 7 8 8 8 7 7 16 22 23 13 8 24
28 24 22 18 13 32 52 27 14 14 15 14 15 17 18 18 18 16 14 12 11 10 8 7 5 5 6 6 6 5 4 4 4 6 8 8 7 7 18 20 23 18 18
31 26 22 16 18 51 32 17 16 19 19 18 19 20 21 21 20 17 15 13 12 10 9 6 5 7 7 6 6 6 9 7 6 5 5 7 8 8 9 16 20 27 18
35 28 21 14 33 50 25 18 19 22 22 22 22 23 24 23 21 18 16 14 12 10 8 5 6 9 9 7 7 15 22 38 40 13 7 6 8 9 11 11 15 24 27
36 28 20 16 39 52 26 18 20 25 25 24 26 26 26 25 22 19 17 15 12 10 6 7 9 13 13 8 10 26 43 85 100 100 25 9 8 10 11 12 12 15 30
34 26 19 18 31 55 28 19 21 27 28 28 30 29 29 27 24 21 18 16 12 9 6 12 13 19 17 12 38 43 47 94 100 80 30 12 9 10 12 12 12 12 22
32 23 20 20 38 56 30 20 22 29 31 32 33 32 31 29 26 23 20 16 12 9 8 14 19 26 20 20 61 63 82 97 89 42 24 14 10 10 12 14 17 12 14
28 23 21 22 38 56 33 21 23 32 34 35 37 35 33 31 28 24 20 16 13 8 7 15 20 31 24 21 69 61 85 98 96 32 24 17 13 13 15 16 21 17 13
31 25 22 24 32 62 37 22 24 34 36 39 41 38 35 32 30 25 20 16 12 6 10 17 22 34 32 18 65 61 88 100 97 64 36 27 21 19 20 21 26 26 15
36 30 23 27 38 65 38 24 26 37 39 42 44 42 37 35 31 26 20 15 9 4 15 19 25 41 45 20 56 67 94 97 100 100 56 56 46 38 34 38 36 30 18
40 36 28 32 48 68 38 25 27 39 43 46 49 49 40 38 34 28 21 16 10 5 17 22 28 46 52 24 48 75 100 100 97 100 100 100 62 59 53 50 47 37 24
42 38 32 34 59 74 39 28 30 41 45 48 59 57 47 42 38 31 24 18 11 6 10 25 26 47 55 36 42 64 91 100 100 100 100 100 100 100 70 50 48 42 36
42 37 34 39 74 72 38 30 33 46 50 53 74 63 51 46 42 33 24 16 11 6 6 27 26 44 58 57 26 55 71 87 100 100 100 100 100 100 100 95 61 39 38
40 33 38 48 83 54 37 34 42 52 54 64 85 66 55 50 45 36 25 15 10 6 5 26 30 38 64 64 42 35 67 67 97 100 99 100 100 100 100 100 100 100 60
37 33 42 68 75 46 38 35 43 56 62 86 93 76 64 56 49 38 28 16 8 5 6 21 38 34 62 73 67 28 52 73 71 88 100 100 100 100 100 100 100 100 100
35 39 48 82 57 47 40 39 49 59 74 92 96 91 75 62 51 39 29 17 10 5 6 13 43 33 53 73 69 57 28 64 83 69 71 99 100 100 100 100 100 100 100
38 45 65 86 53 49 40 44 56 63 91 96 96 95 86 72 54 36 29 17 10 6 5 7 42 41 38 73 72 68 34 36 69 79 72 92 100 100 100 100 100 100 100
42 46 95 70 54 46 43 48 60 77 98 100 100 97 88 76 61 43 34 19 12 6 5 6 19 50 38 70 80 71 62 25 50 71 79 73 96 100 100 100 90 96 100
46 92 93 58 56 45 46 55 64 93 99 100 100 99 90 79 63 44 33 18 11 7 5 6 10 52 39 59 85 78 62 42 25 61 74 75 82 95 100 100 100 100 100
83 99 62 60 50 46 52 63 73 100 100 100 99 98 91 81 63 48 32 18 12 7 5 6 8 51 48 51 86 90 79 51 28 32 67 72 69 80 94 100 100 100 100
100 64 62 56 48 51 59 68 94 100 100 100 100 97 91 82 64 48 32 19 12 7 5 6 7 33 60 44 85 93 89 72 45 24 44 71 69 70 75 90 100 100 100
63 65 61 50 52 58 69 81 100 100 100 100 99 97 91 82 61 46 32 21 11 6 5 6 8 19 71 45 69 95 95 90 73 43 24 56 77 68 67 80 99 95 93
67 70 53 53 59 68 78 100 100 100 100 100 100 98 90 82 60 46 35 21 10 6 5 6 8 11 70 53 51 94 97 94 89 70 36 27 66 75 64 64 77 94 98
Wind_Speed
42 44 45 46 47 48 48 50 46 43 43 45 48 50 54 58 60 62 64 66 69 73 77 80 84 88 92 97 100 102 103 98 98 94 93 89 91 93 93 97 96 95 93
44 46 47 48 49 50 49 48 48 47 47 49 51 54 58 61 63 64 66 68 72 76 79 84 88 93 98 101 101 97 91 88 90 88 80 79 78 76 80 91 94 95 97
46 47 48 50 51 52 49 47 48 48 49 51 54 57 60 63 64 66 68 71 75 79 83 88 92 97 100 97 94 89 87 86 86 88 85 83 77 72 70 75 88 91 92
47 48 51 51 52 52 48 47 48 49 50 53 56 58 61 63 65 67 69 73 78 82 87 92 95 98 97 94 89 85 82 79 78 80 81 80 81 74 72 69 76 86 88
48 50 52 51 52 50 48 47 48 50 53 55 57 60 62 64 66 68 71 76 80 84 89 94 95 95 93 90 86 79 73 70 68 71 74 72 71 74 76 72 70 76 85
49 51 52 52 51 49 48 49 50 52 55 57 59 60 62 64 67 69 73 78 83 87 91 93 91 89 87 83 77 68 62 59 56 55 59 65 61 63 71 75 72 71 78
49 51 51 50 50 49 49 50 52 54 56 58 59 61 64 66 68 71 75 81 85 89 92 91 86 83 84 78 67 53 45 42 46 49 47 48 55 53 63 73 74 70 70
49 50 50 49 50 50 50 51 53 55 57 59 60 62 65 67 69 73 77 82 86 89 90 84 83 78 78 73 60 44 33 33 37 43 42 37 43 47 55 65 72 71 67
50 49 49 49 51 51 51 51 53 56 58 59 61 63 66 69 72 75 78 81 85 87 83 77 77 75 74 64 54 45 33 37 46 43 42 33 31 40 46 57 64 69 66
49 49 49 49 51 52 52 52 54 56 58 60 63 65 67 70 74 76 79 81 83 85 77 71 71 72 69 55 46 39 35 40 46 40 34 30 25 30 37 46 54 62 64
49 50 49 49 52 53 52 52 54 57 58 61 64 66 68 71 75 78 80 82 84 84 76 68 67 68 65 49 38 36 33 40 48 37 29 23 18 21 27 36 45 53 58
50 50 51 51 53 53 53 53 55 57 59 61 64 67 69 72 75 78 80 82 84 80 70 66 65 65 63 50 33 34 28 34 39 32 26 19 13 13 20 28 36 42 49
51 51 51 52 54 53 52 53 56 58 59 62 65 67 69 72 75 77 79 81 80 74 67 64 63 63 62 49 33 30 27 28 32 30 22 17 11 8 12 20 27 33 39
51 51 51 51 53 52 52 53 56 58 60 62 65 67 69 72 74 75 78 79 77 71 62 59 58 60 58 51 34 27 23 25 27 26 19 16 11 8 10 13 21 27 32
51 51 50 51 53 52 52 54 56 58 60 63 65 67 69 71 73 75 77 77 77 72 61 55 53 55 53 49 33 25 22 19 21 24 23 15 10 10 8 10 15 23 27
50 50 50 51 53 52 52 54 56 59 62 64 66 67 69 71 73 75 77 77 76 70 61 53 50 51 52 47 34 23 18 16 16 15 15 13 11 7 7 8 10 16 21
50 49 49 52 51 51 52 54 57 60 62 64 66 67 69 71 73 74 76 76 74 69 62 54 50 49 50 47 41 26 18 16 16 14 10 9 8 6 4 6 7 7 11
49 48 49 51 50 51 52 54 56 58 61 65 65 67 69 71 73 74 75 75 72 67 60 53 48 46 48 46 40 31 22 16 20 19 15 10 7 5 5 4 5 6 8
48 47 50 49 50 51 52 54 55 58 61 64 65 66 68 71 73 74 75 74 72 67 58 52 48 44 45 46 41 36 24 20 17 20 20 14 10 7 5 5 6 8 10
47 48 50 49 50 51 51 53 55 58 62 63 64 64 66 69 71 72 73 74 73 69 59 50 45 44 42 43 40 35 31 23 19 18 20 16 13 10 8 6 6 8 10
46 48 48 48 50 50 50 52 54 58 61 62 64 65 67 68 70 71 72 73 73 70 61 51 43 40 39 41 40 37 31 24 24 20 19 20 17 14 14 13 14 14 13
46 47 46 48 49 49 50 52 53 57 60 62 63 65 67 68 70 71 72 73 73 71 64 53 43 39 36 37 37 37 34 28 21 24 22 23 22 19 20 20 20 20 19
45 45 47 48 48 48 50 51 53 57 60 61 62 64 66 67 69 70 72 72 72 71 66 55 44 37 36 35 36 35 33 29 24 26 26 26 28 25 24 25 24 23 22
43 44 47 47 47 48 50 51 54 57 59 60 62 64 65 67 69 70 71 72 72 71 67 56 45 36 34 32 34 34 33 31 25 21 30 28 31 31 29 26 26 24 22
42 45 45 46 46 48 49 50 54 56 58 60 62 63 65 67 68 70 71 72 72 70 66 57 46 36 33 31 31 33 32 31 28 23 22 32 30 34 33 31 27 28 26
43 44 44 45 46 47 48 51 54 56 57 60 61 63 64 67 68 70 71 72 72 70 65 57 46 37 32 31 29 32 31 30 28 25 20 28 34 33 36 34 31 28 26
Wind_Direction
313 316 317 317 316 315 311 311 308 303 300 301 307 312 313 314 314 314 314 313 313 313 312 311 311 310 309 306 303 299 294 289 284 279 273 265 258 251 243 245 244 244 244
314 317 318 317 317 316 313 310 308 306 305 306 310 311 312 314 315 315 314 314 314 313 313 314 313 312 311 307 303 298 292 285 280 276 270 266 261 257 248 239 239 239 240
314 317 317 317 317 315 315 311 309 309 309 309 310 312 314 315 316 315 315 316 316 316 317 316 315 314 311 307 303 298 293 286 280 275 269 262 258 254 252 243 237 235 236
313 317 316 317 318 317 316 312 310 310 311 311 312 314 316 317 317 316 317 319 319 318 319 319 318 316 313 311 308 303 296 289 281 275 270 263 255 250 247 245 239 234 232
314 316 316 318 320 319 316 312 311 312 314 314 315 317 318 318 318 319 321 321 321 321 322 322 321 319 317 316 312 308 302 294 285 275 268 264 256 246 242 241 238 235 232
314 314 316 318 319 318 313 312 314 316 316 317 318 320 320 320 321 322 324 323 324 324 325 325 324 321 320 320 318 315 311 304 296 286 272 261 257 248 238 237 237 234 231
314 315 316 318 319 316 313 313 315 318 319 319 321 322 322 323 324 325 326 326 328 328 328 327 327 325 326 325 322 319 316 317 316 301 285 267 252 247 237 232 233 233 231
314 314 315 318 318 315 314 313 315 320 321 321 323 324 324 325 326 327 328 329 331 331 330 330 329 330 330 328 324 321 320 328 323 316 303 282 256 242 237 231 229 229 229
313 314 315 317 317 315 313 313 316 321 322 323 325 325 326 328 329 329 331 332 333 334 332 331 330 334 334 328 324 323 331 342 332 319 305 291 261 241 236 231 226 227 227
313 314 314 316 317 315 314 313 317 321 323 323 325 327 328 329 330 331 332 334 335 336 334 332 333 337 337 328 321 324 335 340 336 326 312 301 269 244 237 230 226 224 225
313 314 314 316 318 316 314 314 317 321 323 324 326 328 329 331 332 333 335 336 338 338 336 334 335 339 340 329 321 325 333 345 341 336 328 314 280 247 237 227 224 224 223
314 314 314 315 317 316 315 314 317 321 323 324 327 329 331 332 333 335 337 338 340 339 336 335 337 340 341 334 323 328 328 338 343 347 343 334 302 259 235 224 222 223 224
315 316 312 312 316 315 315 315 318 321 323 325 327 330 331 332 334 337 339 340 341 338 336 336 337 341 343 336 322 328 332 337 342 348 353 347 332 291 249 231 223 223 224
313 313 312 311 315 315 315 316 318 321 323 325 327 330 332 333 335 337 339 341 342 339 335 335 337 341 342 340 324 327 329 331 337 342 348 353 335 303 263 239 227 227 228
313 312 311 311 315 315 316 317 319 321 323 324 327 330 331 333 335 338 339 341 343 342 337 335 336 340 343 343 316 316 316 325 330 333 335 333 345 334 292 254 231 226 227
313 311 311 312 315 315 317 318 319 322 324 325 327 330 332 334 336 338 340 342 343 342 337 334 336 339 342 343 331 304 308 304 326 326 331 341 318 291 315 291 253 231 227
312 310 311 313 314 315 317 318 320 324 324 325 328 331 333 335 337 339 341 342 342 342 338 335 335 338 342 343 341 310 302 281 293 314 314 325 331 325 296 263 258 229 224
310 309 311 313 313 315 317 318 320 325 326 325 328 332 333 335 337 339 341 343 342 341 337 334 333 335 340 343 340 331 289 287 274 283 302 304 301 293 281 256 236 220 219
307 310 310 311 313 316 317 318 322 325 325 326 328 331 333 335 336 338 341 344 343 341 338 333 331 332 336 341 342 337 305 275 275 265 272 278 282 268 247 237 222 212 207
307 308 310 310 314 316 317 319 323 325 326 327 328 331 333 335 336 339 342 343 343 342 339 333 328 329 332 337 341 337 333 276 263 262 259 258 265 250 224 203 199 206 212
306 307 309 311 314 315 318 320 323 324 326 327 328 331 332 334 335 338 341 342 342 342 340 335 328 326 327 333 339 339 331 313 257 255 250 247 247 241 221 205 202 192 190
306 308 309 312 314 317 318 321 323 325 326 328 329 331 333 333 335 339 341 342 341 341 340 336 329 324 324 329 333 339 335 327 276 247 245 237 236 238 228 220 214 209 201
307 307 310 313 316 317 319 322 323 325 327 329 330 331 332 333 336 339 341 341 341 341 339 336 330 322 322 324 329 333 337 328 319 249 241 237 230 232 233 230 227 221 216
305 308 312 315 317 319 320 322 324 326 328 329 330 330 331 333 337 339 340 341 341 340 338 336 330 321 320 319 325 328 333 333 320 296 239 238 231 226 230 236 234 228 225
307 311 315 316 318 319 321 323 324 327 328 328 329 330 331 334 337 339 340 341 340 339 337 335 329 321 318 316 320 325 327 330 329 312 265 234 233 225 224 230 231 229 224
311 314 314 317 319 319 322 323 325 327 327 328 328 329 332 335 337 338 340 340 340 338 337 334 329 321 315 315 314 321 324 326 327 322 300 243 231 228 223 224 230 228 225